FW1208 Weather Reports


time (UTC)temp
C
wind
direction
speed
KPH
gust
KPH
rain 1hr
cm
rain 24hr
cm
rain mn
cm
humidity
%
barometer
mb
20260507205100 11 177 8.0 14.5 0.00 0.20 0.20 82 1011.0
20260507204606 11 118 8.0 16.1 0.00 0.20 0.20 80 1010.7
20260507204059 11 172 9.7 16.1 0.00 0.20 0.20 81 1010.9
20260507203559 11 169 9.7 16.1 0.03 0.20 0.20 82 1011.0
20260507203106 10 141 8.0 16.1 0.03 0.20 0.20 84 1011.1
20260507202558 10 196 11.3 16.1 0.03 0.20 0.20 83 1011.2
20260507202057 10 198 11.3 19.3 0.05 0.20 0.20 83 1011.1
20260507201611 10 166 12.9 19.3 0.05 0.20 0.20 83 1011.0
20260507201056 10 198 6.4 14.5 0.08 0.20 0.20 85 1011.1
20260507200558 10 175 8.0 14.5 0.08 0.20 0.20 85 1011.3
20260507195559 10 149 6.4 16.1 0.10 0.20 0.20 85 1011.2
20260507195054 10 190 9.7 16.1 0.10 0.20 0.20 84 1011.4
20260507194557 10 173 9.7 16.1 0.13 0.20 0.20 81 1011.4
20260507194101 10 156 4.8 11.3 0.13 0.20 0.20 80 1011.3
20260507193553 10 148 3.2 12.9 0.10 0.18 0.18 80 1011.3
20260507193054 10 133 6.4 12.9 0.10 0.18 0.18 82 1011.3
20260507192552 10 90 3.2 9.7 0.08 0.15 0.15 83 1011.4
20260507192052 10 100 0.0 3.2 0.08 0.15 0.15 85 1011.7
20260507191553 10 99 0.0 3.2 0.08 0.15 0.15 83 1011.8
20260507191050 10 99 1.6 3.2 0.05 0.13 0.13 80 1011.8
20260507190553 10 99 0.0 4.8 0.05 0.13 0.13 79 1011.9
20260507190050 10 99 0.0 4.8 0.03 0.10 0.10 78 1011.9
20260507185549 10 98 1.6 6.4 0.03 0.10 0.10 79 1011.5
20260507185049 11 113 1.6 9.7 0.03 0.10 0.10 77 1011.6
20260507184549 11 85 1.6 9.7 0.00 0.08 0.08 75 1011.7
20260507184050 11 94 4.8 9.7 0.00 0.08 0.08 74 1011.5
20260507183549 11 71 3.2 8.0 0.00 0.08 0.08 76 1011.7
20260507183049 10 96 3.2 9.7 0.00 0.08 0.08 77 1011.9
20260507182549 10 114 1.6 11.3 0.00 0.08 0.08 76 1012.0
20260507182050 10 70 6.4 11.3 0.00 0.08 0.08 75 1012.2
20260507181549 11 43 1.6 11.3 0.00 0.08 0.08 76 1012.1
20260507181048 11 44 4.8 11.3 0.00 0.08 0.08 76 1012.0
20260507180550 11 51 1.6 8.0 0.00 0.08 0.08 79 1012.0
20260507180048 11 65 1.6 6.4 0.00 0.08 0.08 78 1012.2
20260507175547 10 72 1.6 8.0 0.00 0.08 0.08 79 1012.3
20260507175046 10 72 3.2 9.7 0.03 0.08 0.08 75 1012.2
20260507174549 10 39 3.2 12.9 0.03 0.08 0.08 72 1012.5
20260507174047 10 44 3.2 12.9 0.03 0.08 0.08 73 1012.2
20260507173545 10 66 3.2 8.0 0.03 0.08 0.08 73 1012.3
20260507173045 11 22 3.2 11.3 0.03 0.08 0.08 71 1012.5
20260507172546 11 56 4.8 14.5 0.03 0.08 0.08 69 1012.3
20260507172044 11 30 4.8 14.5 0.03 0.08 0.08 67 1012.5
20260507171544 11 34 1.6 12.9 0.03 0.08 0.08 69 1012.4
20260507171044 11 48 4.8 12.9 0.03 0.08 0.08 68 1012.5
20260507170544 11 54 3.2 8.0 0.03 0.08 0.08 71 1012.4
20260507170043 11 340 4.8 11.3 0.03 0.08 0.08 70 1012.5
20260507165543 10 60 4.8 11.3 0.03 0.08 0.08 70 1012.3
20260507165046 11 54 6.4 19.3 0.00 0.05 0.05 65 1012.6
20260507164542 11 13 8.0 19.3 0.00 0.05 0.05 59 1012.6
20260507164042 11 78 6.4 19.3 0.00 0.05 0.05 58 1012.8
20260507163642 11 59 8.0 19.3 0.00 0.05 0.05 57 1012.7
20260507163041 12 350 4.8 20.9 0.00 0.05 0.05 58 1013.0
20260507162541 12 5 9.7 24.1 0.00 0.05 0.05 56 1012.9
20260507162041 12 39 8.0 20.9 0.00 0.05 0.05 56 1012.9
20260507161540 12 360 8.0 20.9 0.00 0.05 0.05 56 1012.9
20260507161040 12 42 6.4 17.7 0.00 0.05 0.05 57 1013.1
20260507160540 12 53 8.0 17.7 0.00 0.05 0.05 58 1013.1
20260507160040 12 67 6.4 19.3 0.00 0.05 0.05 57 1013.2
20260507155538 12 5 8.0 22.5 0.00 0.05 0.05 58 1013.3
20260507155038 12 55 9.7 22.5 0.00 0.05 0.05 56 1013.3
20260507154537 11 57 8.0 25.7 0.00 0.05 0.05 57 1013.3
20260507154038 11 32 12.9 25.7 0.00 0.05 0.05 56 1013.1
20260507153536 12 45 8.0 25.7 0.00 0.05 0.05 57 1013.3
20260507153036 12 24 11.3 25.7 0.00 0.05 0.05 58 1013.1
20260507152536 12 29 12.9 24.1 0.00 0.05 0.05 58 1013.0
20260507152035 12 17 9.7 24.1 0.00 0.05 0.05 59 1013.0
20260507151535 11 30 9.7 32.2 0.00 0.05 0.05 59 1012.9
20260507151034 11 26 11.3 32.2 0.00 0.05 0.05 60 1013.1
20260507150534 11 44 16.1 29.0 0.00 0.05 0.05 61 1013.0
20260507150034 11 17 11.3 20.9 0.00 0.05 0.05 63 1013.0
20260507145532 11 38 9.7 29.0 0.00 0.15 0.05 62 1013.2
20260507145031 11 24 14.5 29.0 0.00 0.15 0.05 63 1013.2
20260507144534 11 45 14.5 24.1 0.00 0.15 0.05 63 1013.0
20260507144030 11 31 14.5 25.7 0.00 0.15 0.05 64 1013.1
20260507143528 11 360 11.3 25.7 0.00 0.15 0.05 68 1013.0
20260507143032 11 9 9.7 24.1 0.00 0.15 0.05 70 1013.4
20260507142527 11 34 11.3 32.2 0.00 0.15 0.05 70 1013.3
20260507142025 11 355 16.1 27.4 0.00 0.15 0.05 74 1013.3
20260507141525 11 47 9.7 25.7 0.00 0.15 0.05 82 1013.2
20260507141024 11 53 8.0 22.5 0.00 0.15 0.05 82 1013.3
20260507140525 11 351 6.4 22.5 0.00 0.15 0.05 81 1013.3
20260507140028 12 22 6.4 19.3 0.00 0.15 0.05 79 1013.3
20260507135524 12 5 11.3 19.3 0.00 0.23 0.05 79 1013.5
20260507135023 12 26 4.8 20.9 0.00 0.23 0.05 79 1013.6
20260507134526 11 39 12.9 20.9 0.00 0.23 0.05 80 1013.4
20260507134025 11 360 12.9 20.9 0.00 0.23 0.05 80 1013.5
20260507133525 11 62 6.4 20.9 0.00 0.23 0.05 81 1013.4
20260507133022 11 44 6.4 17.7 0.00 0.23 0.05 81 1013.3
20260507132520 12 32 4.8 16.1 0.00 0.23 0.05 81 1013.4
20260507132022 12 9 6.4 22.5 0.00 0.23 0.05 81 1013.3
20260507131525 11 46 8.0 22.5 0.00 0.23 0.05 81 1013.3
20260507131019 11 11 4.8 16.1 0.00 0.23 0.05 81 1013.2
20260507130519 11 103 4.8 17.7 0.00 0.23 0.05 81 1013.2
20260507130018 11 360 6.4 17.7 0.00 0.23 0.05 81 1013.1
20260507125518 11 30 4.8 17.7 0.00 0.23 0.05 81 1013.0
20260507125017 11 42 6.4 17.7 0.00 0.23 0.05 80 1013.0
20260507124519 11 94 9.7 17.7 0.00 0.23 0.05 80 1013.1
20260507124021 11 5 8.0 17.7 0.00 0.23 0.05 80 1013.2
20260507123519 11 17 9.7 19.3 0.00 0.23 0.05 80 1013.1
20260507123023 11 32 6.4 22.5 0.00 0.23 0.05 80 1013.0
20260507122517 11 22 14.5 22.5 0.00 0.23 0.05 80 1013.3
20260507122016 11 14 6.4 22.5 0.00 0.23 0.05 80 1012.8
20260507121516 11 348 8.0 17.7 0.00 0.23 0.05 80 1012.9
20260507121016 11 44 3.2 22.5 0.00 0.23 0.05 80 1012.9
20260507120516 11 57 12.9 22.5 0.00 0.23 0.05 80 1013.0
20260507120015 11 52 12.9 22.5 0.00 0.23 0.05 80 1013.0
20260507115518 11 347 12.9 20.9 0.00 0.23 0.05 80 1012.9
20260507115016 11 83 6.4 22.5 0.00 0.23 0.05 81 1012.7
20260507114512 11 28 8.0 22.5 0.00 0.23 0.05 81 1012.7
20260507114012 11 5 6.4 19.3 0.00 0.23 0.05 82 1012.7
20260507113513 11 15 11.3 24.1 0.00 0.23 0.05 82 1012.7
20260507113010 11 51 11.3 24.1 0.00 0.23 0.05 82 1012.5
20260507112508 11 16 9.7 19.3 0.00 0.23 0.05 82 1012.3
20260507112010 11 21 9.7 27.4 0.00 0.23 0.05 83 1012.3
20260507111510 11 355 11.3 27.4 0.00 0.23 0.05 83 1012.3
20260507111007 11 23 9.7 19.3 0.00 0.23 0.05 82 1012.3
20260507110507 11 43 6.4 17.7 0.00 0.23 0.05 82 1012.2
20260507110011 11 77 4.8 19.3 0.00 0.23 0.05 83 1012.3
20260507105504 11 26 3.2 19.3 0.00 0.23 0.05 83 1012.7
20260507105004 11 44 1.6 19.3 0.00 0.23 0.05 82 1012.4
20260507104503 11 42 9.7 20.9 0.00 0.23 0.05 82 1012.7
20260507104001 11 346 14.5 20.9 0.00 0.23 0.05 83 1012.3
20260507103601 11 49 11.3 19.3 0.00 0.23 0.05 83 1012.2
20260507103100 11 33 9.7 20.9 0.00 0.23 0.05 83 1012.1
20260507102558 11 19 11.3 24.1 0.00 0.23 0.05 83 1012.1
20260507102059 11 360 8.0 24.1 0.00 0.23 0.05 84 1012.1
20260507101606 11 23 8.0 19.3 0.00 0.23 0.05 84 1012.2
20260507101055 11 12 8.0 22.5 0.00 0.23 0.05 84 1012.4
20260507100557 11 32 9.7 22.5 0.00 0.23 0.05 84 1012.0
20260507100056 11 32 4.8 19.3 0.00 0.23 0.05 84 1011.8
20260507095553 11 15 11.3 20.9 0.00 0.23 0.05 84 1011.4
20260507095052 11 35 6.4 22.5 0.00 0.23 0.05 83 1011.7
20260507094600 11 51 8.0 22.5 0.00 0.23 0.05 83 1011.8
20260507094057 11 17 8.0 22.5 0.00 0.23 0.05 83 1012.1
20260507093551 11 10 6.4 19.3 0.00 0.23 0.05 84 1012.2
20260507093051 11 61 9.7 22.5 0.00 0.23 0.05 84 1012.2
20260507092550 11 40 8.0 22.5 0.00 0.23 0.05 84 1012.1
20260507092050 11 62 8.0 20.9 0.00 0.23 0.05 84 1012.1
20260507091600 11 19 9.7 29.0 0.00 0.23 0.05 85 1012.2
20260507091047 11 26 11.3 29.0 0.00 0.23 0.05 85 1012.0
20260507090545 11 28 6.4 19.3 0.00 0.23 0.05 86 1011.8
20260507090106 11 28 8.0 19.3 0.00 0.23 0.05 87 1012.0
20260507085544 11 55 6.4 20.9 0.00 0.23 0.05 87 1011.8
20260507085043 11 355 9.7 20.9 0.00 0.23 0.05 87 1012.0
20260507084542 11 37 8.0 17.7 0.00 0.23 0.05 88 1012.1
20260507084042 11 50 8.0 16.1 0.00 0.23 0.05 88 1011.8
20260507083541 12 26 6.4 19.3 0.00 0.23 0.05 89 1011.8
20260507083041 12 340 8.0 20.9 0.00 0.23 0.05 89 1011.8
20260507082542 12 37 9.7 20.9 0.00 0.23 0.05 89 1011.5
20260507082038 12 53 9.7 19.3 0.00 0.23 0.05 90 1011.4
20260507081550 12 76 4.8 25.7 0.00 0.23 0.05 90 1011.4
20260507081037 12 9 8.0 25.7 0.00 0.23 0.05 91 1011.5
20260507080535 12 34 14.5 24.1 0.00 0.23 0.05 91 1011.6
20260507080034 12 36 9.7 19.3 0.00 0.23 0.05 92 1011.7
20260507075533 12 360 6.4 17.7 0.00 0.23 0.05 92 1011.7
20260507075032 12 37 6.4 16.1 0.00 0.23 0.05 92 1011.7
20260507074536 12 64 8.0 16.1 0.00 0.23 0.05 92 1011.1
20260507074031 12 9 4.8 19.3 0.00 0.23 0.05 92 1011.0
20260507073529 12 9 11.3 32.2 0.00 0.23 0.05 92 1011.1
20260507073028 13 28 12.9 32.2 0.00 0.23 0.05 93 1011.1
20260507072527 13 27 11.3 27.4 0.00 0.23 0.05 93 1010.8
20260507072025 13 49 8.0 27.4 0.03 0.23 0.05 93 1010.7
20260507071525 13 5 9.7 25.7 0.03 0.23 0.05 93 1010.5
20260507071023 13 25 9.7 16.1 0.03 0.23 0.05 93 1010.4
20260507070523 13 41 9.7 17.7 0.03 0.23 0.05 93 1010.5
20260507070023 13 36 11.3 20.9 0.03 0.23 0.05 93 1010.7
20260507065522 13 52 9.7 20.9 0.03 0.23 0.05 93 1010.8
20260507065021 13 23 8.0 19.3 0.03 0.23 0.05 93 1010.6
20260507064521 14 360 9.7 22.5 0.03 0.23 0.05 93 1010.8
20260507064020 14 5 9.7 22.5 0.03 0.23 0.05 93 1010.9
20260507063519 14 40 12.9 29.0 0.03 0.23 0.05 93 1010.7
20260507063018 14 360 14.5 37.0 0.03 0.23 0.05 93 1010.7
20260507062517 15 48 20.9 37.0 0.00 0.20 0.03 93 1010.8
20260507062015 16 328 17.7 29.0 0.00 0.20 0.03 93 1010.5
20260507061527 16 360 14.5 25.7 0.00 0.20 0.03 94 1010.2
20260507061012 16 342 12.9 22.5 0.03 0.20 0.03 94 1010.4
20260507060511 17 346 4.8 12.9 0.03 0.20 0.03 94 1010.6
20260507060021 16 322 3.2 8.0 0.03 0.20 0.03 94 1010.3
20260507055510 17 65 3.2 9.7 0.03 0.20 0.03 93 1009.5
20260507055010 17 76 3.2 14.5 0.03 0.20 0.03 93 1009.4
20260507054508 17 90 3.2 14.5 0.03 0.20 0.03 93 1009.5
20260507054008 17 37 3.2 8.0 0.03 0.20 0.03 93 1009.9
20260507053508 17 36 1.6 4.8 0.03 0.20 0.03 92 1009.7
20260507053009 17 36 1.6 4.8 0.03 0.20 0.03 92 1009.8
20260507052505 17 36 1.6 4.8 0.03 0.20 0.03 92 1009.5
20260507052005 17 36 1.6 8.0 0.03 0.20 0.03 91 1009.8
20260507051505 17 36 3.2 8.0 0.03 0.20 0.03 91 1009.6
20260507051004 17 250 3.2 6.4 0.00 0.18 0.00 90 1009.9
20260507050502 17 242 3.2 6.4 0.00 0.18 0.00 90 1010.1
20260507050003 17 242 3.2 4.8 0.00 0.18 0.00 89 1010.2
20260507045604 17 242 0.0 12.9 0.00 0.18 0.00 89 1010.4
20260507045101 18 241 1.6 17.7 0.00 0.18 0.00 89 1010.4
20260507044604 18 252 4.8 19.3 0.00 0.18 0.00 89 1010.4
20260507044059 18 216 9.7 19.3 0.00 0.18 0.00 89 1010.4
20260507043558 18 211 6.4 14.5 0.00 0.18 0.00 88 1010.3
20260507043058 18 211 6.4 16.1 0.00 0.18 0.00 88 1010.4
20260507042557 18 216 6.4 16.1 0.00 0.18 0.00 88 1010.2
20260507042055 18 261 8.0 19.3 0.00 0.18 0.00 88 1010.3
20260507041554 18 216 6.4 19.3 0.00 0.18 0.00 88 1010.1
20260507041054 18 205 8.0 17.7 0.00 0.18 0.00 87 1010.0
20260507040554 18 217 8.0 14.5 0.00 0.18 0.00 87 1010.0
20260507040052 18 216 6.4 22.5 0.00 0.18 0.00 87 1010.2
20260507035551 18 217 9.7 22.5 0.00 0.18 0.18 87 1010.2
20260507035051 18 198 9.7 22.5 0.00 0.18 0.18 88 1010.1
20260507034551 18 225 8.0 22.5 0.00 0.18 0.18 88 1010.1
20260507034050 18 188 6.4 22.5 0.00 0.18 0.18 88 1010.3
20260507033550 18 219 8.0 16.1 0.00 0.18 0.18 88 1010.5
20260507033050 18 207 11.3 17.7 0.00 0.18 0.18 88 1010.2
20260507032551 18 189 11.3 17.7 0.00 0.18 0.18 87 1010.1
20260507032049 18 190 6.4 12.9 0.00 0.18 0.18 87 1010.2
20260507031549 18 191 6.4 12.9 0.00 0.18 0.18 87 1010.2
20260507031053 18 203 6.4 14.5 0.00 0.18 0.18 86 1010.3
20260507030549 18 210 8.0 14.5 0.00 0.18 0.18 86 1010.3
20260507030056 18 204 4.8 16.1 0.00 0.18 0.18 86 1010.4
20260507025548 18 241 8.0 16.1 0.00 0.18 0.18 86 1010.4
20260507025048 18 236 8.0 16.1 0.00 0.18 0.18 86 1010.2
20260507024548 18 237 9.7 16.1 0.00 0.18 0.18 86 1010.2
20260507024053 18 213 8.0 19.3 0.00 0.18 0.18 86 1009.9
20260507023650 18 205 11.3 19.3 0.00 0.18 0.18 86 1009.7
20260507023047 18 198 12.9 19.3 0.00 0.18 0.18 86 1009.7
20260507022547 18 215 12.9 22.5 0.00 0.18 0.18 86 1009.8
20260507022047 18 182 12.9 22.5 0.00 0.18 0.18 86 1009.6
20260507021557 18 203 14.5 20.9 0.00 0.18 0.18 85 1009.6
20260507021047 18 187 11.3 19.3 0.00 0.18 0.18 85 1009.5
20260507020546 18 199 9.7 17.7 0.00 0.18 0.18 85 1009.6
20260507020052 18 227 11.3 17.7 0.00 0.18 0.18 85 1009.8
20260507015545 18 183 9.7 17.7 0.00 0.18 0.18 85 1009.8
20260507015045 18 203 8.0 16.1 0.00 0.18 0.18 85 1009.9
20260507014607 18 195 9.7 16.1 0.00 0.18 0.18 85 1010.0
20260507014046 18 201 9.7 16.1 0.00 0.18 0.18 85 1010.1
20260507013545 18 192 9.7 16.1 0.00 0.18 0.18 85 1010.1
20260507013049 18 192 11.3 16.1 0.00 0.18 0.18 85 1010.1
20260507012545 18 215 11.3 16.1 0.00 0.18 0.18 85 1010.2
20260507012045 18 195 9.7 24.1 0.00 0.18 0.18 85 1010.1
20260507011545 18 192 12.9 25.7 0.00 0.18 0.18 85 1010.1
20260507011044 18 195 11.3 25.7 0.00 0.18 0.18 85 1010.2
20260507010548 18 191 8.0 14.5 0.00 0.18 0.18 85 1010.1
20260507010050 18 198 8.0 16.1 0.00 0.18 0.18 84 1010.1
20260507005544 18 198 9.7 16.1 0.00 0.18 0.18 84 1010.2
20260507005043 18 205 8.0 16.1 0.00 0.18 0.18 84 1010.1
20260507004547 18 201 9.7 16.1 0.00 0.18 0.18 84 1009.9
20260507004043 18 182 11.3 16.1 0.00 0.18 0.18 84 1009.7
20260507003543 18 188 9.7 16.1 0.00 0.18 0.18 84 1009.8
20260507003042 18 189 11.3 19.3 0.00 0.18 0.18 84 1010.1
20260507002542 18 202 9.7 22.5 0.00 0.18 0.18 83 1010.0
20260507002042 18 190 14.5 22.5 0.00 0.18 0.18 83 1009.9
20260507001542 18 198 11.3 20.9 0.00 0.18 0.18 83 1009.9
20260507001041 18 192 11.3 20.9 0.00 0.18 0.18 83 1009.9
20260507000541 18 196 11.3 20.9 0.00 0.18 0.18 82 1009.9
20260507000044 19 183 11.3 17.7 0.00 0.18 0.18 82 1010.1
20260506235541 19 205 11.3 24.1 0.00 0.18 0.18 82 1010.0
20260506235040 19 207 8.0 24.1 0.00 0.18 0.18 81 1010.0
20260506234540 19 175 11.3 19.3 0.00 0.18 0.18 81 1010.2
20260506234041 19 224 6.4 16.1 0.00 0.18 0.18 81 1010.2
20260506233542 19 202 8.0 20.9 0.00 0.18 0.18 81 1010.1
20260506233040 19 193 12.9 25.7 0.00 0.18 0.18 81 1009.9
20260506232539 19 199 14.5 25.7 0.00 0.18 0.18 80 1009.7
20260506232040 20 211 11.3 24.1 0.00 0.18 0.18 80 1009.7
20260506231539 20 205 9.7 25.7 0.00 0.18 0.18 80 1009.6
20260506231042 20 211 8.0 25.7 0.00 0.18 0.18 80 1009.8
20260506230541 20 209 12.9 19.3 0.00 0.18 0.18 80 1009.7
20260506230038 20 206 8.0 19.3 0.00 0.18 0.18 79 1009.6
20260506225538 20 193 6.4 19.3 0.00 0.18 0.18 79 1009.5
20260506225038 20 212 12.9 20.9 0.00 0.18 0.18 79 1009.6
20260506224538 20 195 11.3 29.0 0.00 0.18 0.18 79 1009.7
20260506224038 20 190 14.5 29.0 0.00 0.18 0.18 79 1009.7
20260506223537 20 189 14.5 20.9 0.00 0.18 0.18 79 1009.6
20260506223038 20 211 14.5 22.5 0.00 0.18 0.18 79 1009.7
20260506222537 20 202 12.9 29.0 0.00 0.18 0.18 80 1009.6
20260506222037 20 178 19.3 29.0 0.00 0.18 0.18 80 1009.6
20260506221536 20 192 11.3 27.4 0.00 0.18 0.18 80 1009.7
20260506221036 20 183 12.9 27.4 0.00 0.18 0.18 80 1009.7
20260506220536 20 186 17.7 24.1 0.00 0.18 0.18 79 1009.7
20260506220038 20 198 11.3 25.7 0.00 0.18 0.18 80 1009.8
20260506215534 20 221 14.5 25.7 0.00 0.18 0.18 80 1009.9
20260506215035 20 223 16.1 29.0 0.00 0.18 0.18 80 1009.6
20260506214535 20 199 16.1 29.0 0.00 0.18 0.18 80 1009.5
20260506214035 20 209 16.1 24.1 0.00 0.18 0.18 80 1009.3
20260506213535 20 192 14.5 24.1 0.00 0.18 0.18 80 1009.4
20260506213034 20 182 14.5 29.0 0.00 0.18 0.18 80 1009.6
20260506212534 20 188 12.9 35.4 0.00 0.18 0.18 80 1009.6
20260506212034 19 198 14.5 35.4 0.00 0.18 0.18 80 1009.6
20260506211536 20 204 14.5 30.6 0.00 0.18 0.18 80 1009.7
20260506211033 20 182 17.7 30.6 0.00 0.18 0.18 79 1009.6
20260506210535 20 223 11.3 32.2 0.00 0.18 0.18 80 1009.5
20260506210033 20 203 11.3 35.4 0.00 0.18 0.18 79 1009.7
20260506205532 20 201 17.7 35.4 0.00 0.18 0.18 78 1009.6